Location: Newark
(44.1906°N, 75.9681°W)
Time: 18:47:53
(UTC+00:00)

ISS - Visible Passes

Search period start: 19 January 2020 00:00
Search period end: 29 January 2020 00:00
Orbit: 415 x 421 km, 51.6° (Epoch: 20 January)

Date Brightness Start Highest point End Pass type
(mag) Time Alt. Az. Time Alt. Az. Time Alt. Az.
20 Jan -1.1 00:23:24 10° SW 00:24:17 17° SW 00:24:17 17° SW visible
20 Jan -2.7 23:35:45 10° SSW 23:38:38 31° SE 23:38:38 31° SE visible
21 Jan -2.0 22:48:27 10° S 22:50:57 20° SE 22:52:55 13° E visible
22 Jan -1.7 00:24:07 10° WSW 00:25:52 28° WSW 00:25:52 28° WSW visible
22 Jan -3.9 23:36:04 10° SW 23:39:26 84° SSE 23:40:03 57° ENE visible
23 Jan -3.4 22:48:12 10° SW 22:51:28 51° SE 22:54:10 14° ENE visible
24 Jan -1.6 00:25:16 10° W 00:27:06 25° WNW 00:27:06 25° WNW visible
24 Jan -3.0 23:37:00 10° W 23:40:14 45° NNW 23:41:09 35° NNE visible
25 Jan -3.5 22:48:48 10° WSW 22:52:09 65° NNW 22:55:09 12° NE visible
26 Jan -1.3 00:26:33 10° WNW 00:28:05 19° NW 00:28:05 19° NW visible
26 Jan -2.3 23:38:12 10° WNW 23:41:10 28° NNW 23:42:03 24° NNE visible
27 Jan -2.6 22:49:51 10° W 22:52:58 34° NNW 22:55:58 11° NE visible
28 Jan -1.2 00:27:41 10° NW 00:28:54 17° NW 00:28:54 17° NW visible
28 Jan -2.1 23:39:24 10° WNW 23:42:09 22° N 23:42:48 21° NNE visible
